PWSweather.com
Personal Weather Stations
Station Observations
KB2SBX
Sugarloaf, Sugarloaf, PA 18249

SugarloafSugarloaf, PA 18249

Lat: 41.0126685, Lon: -76.1082041

Elevation: 1030

Station Type: WS-2080

http://sugarloafpaweather.webng.com/weather.shtml

Latest ConditionsUpdated 4:30:02 AM EDT Wednesday, Aug 24, 2016
Currently Today's Max Today's Min Today's Average
Temperature 55.4°F13.0°C 59.0°F15.0°C 55.4°F13.0°C 57.1°F13.9°C
Dew Point 55.1°F12.8°C 57.4°F14.1°C 55.1°F12.8°C 56.4°F13.6°C
Winds Calm Calm Calm Calm - Calm Calm
Wind Gusts -- 1.6 mph2.6 kmh - -
Humidity 99% 100% 93% 98%
Pressure 30.09 in1019.0 mb 30.12 in1020.0 mb 30.09 in1019.0 mb -
Hour Temp Dew Point Humidity Winds Wind Gusts Pressure Precip Precip Rate Daily Precip Total
04:30 AM 55.4°F13.0°C 55.1°F12.8°C 99% Calm Calm -- 30.09 in1019.0 mb 0.00 in0.0 mm 0.00 in0.0 mm 0.00 in0.0 mm
04:20 AM 55.6°F13.1°C 55.3°F12.9°C 99% Calm Calm 1.6 mph2.6 kmh 30.09 in1019.0 mb 0.00 in0.0 mm 0.00 in0.0 mm 0.00 in0.0 mm
04:10 AM 55.4°F13.0°C 55.1°F12.8°C 99% Calm Calm -- 30.09 in1019.0 mb 0.00 in0.0 mm 0.00 in0.0 mm 0.00 in0.0 mm
04:00 AM 55.8°F13.2°C 55.5°F13.1°C 99% Calm Calm -- 30.09 in1019.0 mb 0.00 in0.0 mm 0.00 in0.0 mm 0.00 in0.0 mm
03:50 AM 55.9°F13.3°C 55.7°F13.2°C 99% Calm Calm 1.6 mph2.6 kmh 30.09 in1019.0 mb 0.00 in0.0 mm 0.00 in0.0 mm 0.00 in0.0 mm
03:40 AM 55.9°F13.3°C 55.7°F13.2°C 99% Calm Calm -- 30.09 in1019.0 mb 0.00 in0.0 mm 0.00 in0.0 mm 0.00 in0.0 mm
03:30 AM 55.9°F13.3°C 55.7°F13.2°C 99% Calm Calm -- 30.09 in1019.0 mb 0.00 in0.0 mm 0.00 in0.0 mm 0.00 in0.0 mm
03:20 AM 56.3°F13.5°C 56.0°F13.3°C 99% Calm Calm -- 30.09 in1019.0 mb 0.00 in0.0 mm 0.00 in0.0 mm 0.00 in0.0 mm
03:10 AM 56.3°F13.5°C 56.0°F13.3°C 99% Calm Calm -- 30.09 in1019.0 mb 0.00 in0.0 mm 0.00 in0.0 mm 0.00 in0.0 mm
03:00 AM 56.5°F13.6°C 56.2°F13.4°C 99% Calm Calm -- 30.10 in1019.3 mb 0.00 in0.0 mm 0.00 in0.0 mm 0.00 in0.0 mm
02:50 AM 56.5°F13.6°C 56.2°F13.4°C 99% Calm Calm -- 30.10 in1019.3 mb 0.00 in0.0 mm 0.00 in0.0 mm 0.00 in0.0 mm
02:40 AM 56.5°F13.6°C 56.2°F13.4°C 99% Calm Calm -- 30.10 in1019.3 mb 0.00 in0.0 mm 0.00 in0.0 mm 0.00 in0.0 mm
02:30 AM 56.8°F13.8°C 56.6°F13.7°C 99% Calm Calm -- 30.10 in1019.3 mb 0.00 in0.0 mm 0.00 in0.0 mm 0.00 in0.0 mm
02:20 AM 56.8°F13.8°C 56.6°F13.7°C 99% Calm Calm -- 30.10 in1019.3 mb 0.00 in0.0 mm 0.00 in0.0 mm 0.00 in0.0 mm
02:10 AM 56.8°F13.8°C 56.6°F13.7°C 99% Calm Calm -- 30.11 in1019.6 mb 0.00 in0.0 mm 0.00 in0.0 mm 0.00 in0.0 mm
02:00 AM 57.0°F13.9°C 57.0°F13.9°C 100% Calm Calm -- 30.10 in1019.3 mb 0.00 in0.0 mm 0.00 in0.0 mm 0.00 in0.0 mm
01:50 AM 57.4°F14.1°C 56.5°F13.6°C 97% Calm Calm -- 30.11 in1019.6 mb 0.00 in0.0 mm 0.00 in0.0 mm 0.00 in0.0 mm
01:40 AM 57.6°F14.2°C 56.7°F13.7°C 97% Calm Calm -- 30.11 in1019.6 mb 0.00 in0.0 mm 0.00 in0.0 mm 0.00 in0.0 mm
01:30 AM 57.7°F14.3°C 56.9°F13.8°C 97% Calm Calm -- 30.11 in1019.6 mb 0.00 in0.0 mm 0.00 in0.0 mm 0.00 in0.0 mm
01:20 AM 57.7°F14.3°C 56.9°F13.8°C 97% Calm Calm -- 30.11 in1019.6 mb 0.00 in0.0 mm 0.00 in0.0 mm 0.00 in0.0 mm
01:10 AM 57.9°F14.4°C 57.1°F13.9°C 97% Calm Calm -- 30.11 in1019.6 mb 0.00 in0.0 mm 0.00 in0.0 mm 0.00 in0.0 mm
01:00 AM 58.3°F14.6°C 57.4°F14.1°C 97% Calm Calm -- 30.11 in1019.6 mb 0.00 in0.0 mm 0.00 in0.0 mm 0.00 in0.0 mm
12:50 AM 58.5°F14.7°C 57.3°F14.1°C 96% Calm Calm -- 30.11 in1019.6 mb 0.00 in0.0 mm 0.00 in0.0 mm 0.00 in0.0 mm
12:40 AM 58.5°F14.7°C 57.3°F14.1°C 96% Calm Calm -- 30.12 in1020.0 mb 0.00 in0.0 mm 0.00 in0.0 mm 0.00 in0.0 mm
12:30 AM 58.5°F14.7°C 57.0°F13.9°C 95% Calm Calm -- 30.12 in1020.0 mb 0.00 in0.0 mm 0.00 in0.0 mm 0.00 in0.0 mm
12:20 AM 58.6°F14.8°C 57.2°F14.0°C 95% Calm Calm -- 30.12 in1020.0 mb 0.00 in0.0 mm 0.00 in0.0 mm 0.00 in0.0 mm
12:10 AM 58.8°F14.9°C 57.4°F14.1°C 95% Calm Calm -- 30.12 in1020.0 mb 0.00 in0.0 mm 0.00 in0.0 mm 0.00 in0.0 mm
12:00 AM 59.0°F15.0°C 57.0°F13.9°C 93% Calm Calm -- 30.11 in1019.6 mb 0.00 in0.0 mm 0.00 in0.0 mm 0.00 in0.0 mm